Regional Weather Roundup
Issued by NWS

Home | Current Version | Previous Version | Text Only | Print | Product List | Glossary Off
Versions: 1 2 3 4 5 6 7 8 9 10 11 12 13 14 15 16 17 18 19 20 21 22 23 24 25 26 27 28 29 30 31 32 33 34 35 36 37 38 39 40 41 42 43 44 45 46 47 48 49 50

000
ASUS45 KTFX 281704
RWRMT
MONTANA REGIONAL WEATHER ROUNDUP
NATIONAL WEATHER SERVICE GREAT FALLS MT
1100 AM MDT FRI AUG 28 2015

NOTE: "FAIR" INDICATES FEW OR NO CLOUDS BELOW 12000 FEET WITH NO
SIGNIFICANT WEATHER AND/OR OBSTRUCTIONS TO VISIBILITY.

MTZ001>007-043-281800-
WEST OF THE DIVIDE

CITY           SKY/WX    TMP DP  RH WIND       PRES   REMARKS
KALISPELL      PTSUNNY   71  43  36 E3        30.01F SMOKE
MISSOULA       CLOUDY    64  42  44 CALM      30.08F HAZE
BUTTE          CLOUDY    62  44  51 CALM      30.24S HAZE
MULLAN PASS    CLOUDY    62  39  42 VRB3      30.15S HAZE
DEER LODGE       N/A     68  46  45 SE3       30.19F
EUREKA           N/A     79  41  25 SE12      29.97F
HAMILTON         N/A     66  48  52 NW5       30.07F
LIBBY            N/A     64  41  42 CALM      30.01S
$$

MTZ008-052>055-281800-
SOUTHWEST MONTANA

CITY           SKY/WX    TMP DP  RH WIND       PRES   REMARKS
BOZEMAN        MOSUNNY   66  49  54 CALM      30.19S
DILLON         CLOUDY    68  42  38 SW7       30.22S HAZE
W YELLOWSTONE  SUNNY     63  41  45 CALM      30.35F
$$

MTZ009-010-012-014-046-048-049-054-281800-
EAST SLOPES AND CENTRAL MONTANA

CITY           SKY/WX    TMP DP  RH WIND       PRES   REMARKS
CUT BANK       CLOUDY    77  36  22 W22       30.03S HAZE
GREAT FALLS    MOSUNNY   83  35  18 SW14      30.05F HAZE
MALMSTROM AFB  MOSUNNY   80  36  20 SW15G24   30.05S HAZE
HELENA         CLOUDY    71  44  37 CALM      30.12F SMOKE
$$

MTZ011-013-016-021-045-047-050-051-281800-
NORTH CENTRAL MONTANA

CITY           SKY/WX    TMP DP  RH WIND       PRES   REMARKS
HAVRE          CLOUDY    73  42  32 SW13      29.98S HAZE
LEWISTOWN      PTSUNNY   81  33  17 W5        30.11R HAZE
N BAR RANCH      N/A     81  28  15 NW13      30.14S
CHINOOK          N/A     75  46  35 W8        29.96S
FORT BENTON      N/A     81  41  24 S6        30.02S
$$

MTZ017>020-022>027-061-062-281800-
NORTHEAST MONTANA

CITY           SKY/WX    TMP DP  RH WIND       PRES   REMARKS
GLASGOW        CLOUDY    72  50  45 VRB3      29.95S HAZE
JORDAN           N/A     81  42  25 W12       30.00R
SIDNEY         SUNNY     73  61  64 S7        29.92F
WOLF POINT     MOSUNNY   74  55  51 SW10      29.94R
PLENTYWOOD       N/A     75  52  43 W6        29.91S
POPLAR           N/A     73  54  49 SW8       29.93S
$$

MTZ028>42-056>058-281800-
SOUTHCENTRAL AND SOUTHEAST MONTANA

CITY           SKY/WX    TMP DP  RH WIND       PRES   REMARKS
BAKER          SUNNY     78  48  34 W8        30.01F
BILLINGS       CLOUDY    73  49  42 SW16G23   30.12S
LIVINGSTON     MOSUNNY   80  41  24 SW9       30.16R
MILES CITY     MOSUNNY   80  46  30 W15       30.00S HAZE
FORSYTH          N/A     77  48  36 W13       30.02F
$$

REGIONAL REPORTS...DAKOTAS

CITY           SKY/WX    TMP DP  RH WIND       PRES   REMARKS
WILLISTON      SUNNY     75  61  61 S6        29.92R
MINOT          SUNNY     79  61  53 W7        29.87R
DICKINSON      SUNNY     79  55  43 NW8       29.94S
BISMARCK       SUNNY     79  64  60 SW7       29.91S
GRAND FORKS    CLOUDY    75  66  73 S9        29.89F
FARGO          SUNNY     76  66  71 S14       29.93S
BUFFALO SD       N/A     80  52  37 W14       29.96S
RAPID CITY     SUNNY     80  55  42 N12       30.06R
$$

REGIONAL REPORTS...WYOMING/IDAHO/WASHINGTON

CITY           SKY/WX    TMP DP  RH WIND       PRES   REMARKS
GILLETTE       SUNNY     79  44  28 NW14      30.16R
SHERIDAN       SUNNY     84  43  23 VRB3      30.14S
BUFFALO WY     SUNNY     81  39  22 N10       30.22R
CODY           SUNNY     72  45  37 CALM      30.22S
YELLOWSTONE LA   N/A     56  47  71 VRB5      30.45R
IDAHO FALLS    SUNNY     67  49  52 CALM      30.24S
SALMON         CLOUDY    63  43  48 CALM      30.16F
BOISE          PTSUNNY   79  38  22 CALM      30.05S
SPOKANE        CLOUDY    73  41  31 S10       29.99R HAZE
$$

REGIONAL REPORTS...ALBERTA

CITY           SKY/WX    TMP DP  RH WIND       PRES   REMARKS
$$

REGIONAL REPORTS...SASKATCHEWAN

CITY           SKY/WX    TMP DP  RH WIND       PRES   REMARKS
$$


USA.gov is the U.S. government's official web portal to all federal, state and local government web resources and services.